| time (UTC) | temp C | wind direction | speed KPH | gust KPH | rain 1hr cm | rain 24hr cm | rain mn cm | humidity % | barometer mb |
| 20260831001603 | 33 | 281 | 4.8 | 14.5 | 0.00 | 0.10 | 0.00 | 29 | 1018.2 |
| 20260831001056 | 33 | 313 | 4.8 | 9.7 | 0.00 | 0.10 | 0.00 | 29 | 1018.3 |
| 20260831000555 | 33 | 293 | 1.6 | 12.9 | 0.00 | 0.10 | 0.00 | 29 | 1018.3 |
| 20260831000108 | 33 | 264 | 4.8 | 12.9 | 0.00 | 0.10 | 0.00 | 29 | 1018.2 |
| 20260830235559 | 33 | 238 | 4.8 | 9.7 | 0.00 | 0.13 | 0.00 | 29 | 1018.2 |
| 20260830235057 | 33 | 308 | 3.2 | 9.7 | 0.00 | 0.13 | 0.00 | 28 | 1018.3 |
| 20260830234604 | 33 | 311 | 1.6 | 8.0 | 0.00 | 0.13 | 0.00 | 29 | 1018.3 |
| 20260830234054 | 33 | 258 | 3.2 | 9.7 | 0.00 | 0.13 | 0.00 | 29 | 1018.3 |
| 20260830233554 | 33 | 0 | 3.2 | 12.9 | 0.00 | 0.13 | 0.00 | 30 | 1018.3 |
| 20260830233106 | 33 | 339 | 3.2 | 12.9 | 0.00 | 0.13 | 0.00 | 30 | 1018.4 |
| 20260830232557 | 32 | 1 | 8.0 | 12.9 | 0.00 | 0.13 | 0.00 | 30 | 1018.4 |
| 20260830232055 | 33 | 1 | 4.8 | 9.7 | 0.00 | 0.13 | 0.00 | 29 | 1018.3 |
| 20260830231607 | 33 | 0 | 3.2 | 16.1 | 0.00 | 0.13 | 0.00 | 29 | 1018.4 |
| 20260830231054 | 33 | 303 | 8.0 | 16.1 | 0.00 | 0.13 | 0.00 | 29 | 1018.5 |
| 20260830230555 | 33 | 299 | 3.2 | 16.1 | 0.00 | 0.13 | 0.00 | 29 | 1018.5 |
| 20260830230107 | 33 | 296 | 9.7 | 16.1 | 0.00 | 0.13 | 0.00 | 29 | 1018.5 |
| 20260830225555 | 33 | 277 | 8.0 | 16.1 | 0.00 | 0.13 | 0.00 | 29 | 1018.7 |
| 20260830225055 | 33 | 293 | 9.7 | 14.5 | 0.00 | 0.13 | 0.00 | 28 | 1018.7 |
| 20260830224603 | 33 | 271 | 3.2 | 8.0 | 0.00 | 0.13 | 0.00 | 29 | 1018.8 |
| 20260830224052 | 33 | 261 | 0.0 | 8.0 | 0.00 | 0.13 | 0.00 | 30 | 1018.8 |
| 20260830223555 | 33 | 217 | 3.2 | 16.1 | 0.00 | 0.13 | 0.00 | 30 | 1018.9 |
| 20260830223108 | 33 | 340 | 8.0 | 16.1 | 0.00 | 0.13 | 0.00 | 29 | 1019.0 |
| 20260830222555 | 32 | 346 | 4.8 | 12.9 | 0.00 | 0.13 | 0.00 | 32 | 1019.1 |
| 20260830222059 | 32 | 10 | 6.4 | 12.9 | 0.00 | 0.13 | 0.00 | 32 | 1019.1 |
| 20260830221610 | 32 | 356 | 6.4 | 16.1 | 0.00 | 0.13 | 0.00 | 32 | 1019.2 |
| 20260830221057 | 32 | 13 | 3.2 | 16.1 | 0.00 | 0.13 | 0.00 | 31 | 1019.4 |
| 20260830220555 | 32 | 298 | 8.0 | 16.1 | 0.00 | 0.13 | 0.00 | 31 | 1019.5 |
| 20260830220108 | 32 | 334 | 8.0 | 16.1 | 0.00 | 0.13 | 0.00 | 31 | 1019.6 |
| 20260830215556 | 32 | 295 | 6.4 | 17.7 | 0.00 | 0.25 | 0.00 | 31 | 1019.7 |
| 20260830215055 | 32 | 239 | 11.3 | 17.7 | 0.00 | 0.25 | 0.00 | 31 | 1019.8 |
| 20260830214609 | 32 | 302 | 6.4 | 20.9 | 0.00 | 0.25 | 0.00 | 31 | 1019.8 |
| 20260830214055 | 32 | 319 | 8.0 | 20.9 | 0.00 | 0.25 | 0.00 | 31 | 1019.9 |
| 20260830213554 | 32 | 259 | 8.0 | 20.9 | 0.00 | 0.25 | 0.00 | 32 | 1019.9 |
| 20260830213108 | 32 | 325 | 9.7 | 20.9 | 0.00 | 0.25 | 0.00 | 32 | 1020.0 |
| 20260830212558 | 32 | 340 | 6.4 | 17.7 | 0.00 | 0.25 | 0.00 | 32 | 1020.0 |
| 20260830212055 | 32 | 308 | 4.8 | 17.7 | 0.00 | 0.25 | 0.00 | 32 | 1020.2 |
| 20260830211606 | 32 | 323 | 9.7 | 16.1 | 0.00 | 0.25 | 0.00 | 31 | 1020.2 |
| 20260830211055 | 32 | 317 | 6.4 | 14.5 | 0.00 | 0.25 | 0.00 | 34 | 1020.3 |
| 20260830210556 | 32 | 359 | 9.7 | 24.1 | 0.00 | 0.25 | 0.00 | 31 | 1020.4 |
| 20260830210108 | 32 | 297 | 8.0 | 24.1 | 0.00 | 0.25 | 0.00 | 31 | 1020.4 |
| 20260830205556 | 32 | 359 | 3.2 | 16.1 | 0.00 | 0.30 | 0.00 | 34 | 1020.5 |
| 20260830205054 | 32 | 8 | 8.0 | 22.5 | 0.00 | 0.30 | 0.00 | 32 | 1020.5 |
| 20260830204605 | 32 | 360 | 6.4 | 22.5 | 0.00 | 0.30 | 0.00 | 32 | 1020.4 |
| 20260830204056 | 32 | 303 | 11.3 | 22.5 | 0.00 | 0.30 | 0.00 | 31 | 1020.7 |
| 20260830203555 | 32 | 259 | 6.4 | 14.5 | 0.00 | 0.30 | 0.00 | 32 | 1020.7 |
| 20260830203107 | 32 | 348 | 8.0 | 16.1 | 0.00 | 0.30 | 0.00 | 32 | 1020.8 |
| 20260830202556 | 32 | 328 | 8.0 | 20.9 | 0.00 | 0.30 | 0.00 | 34 | 1020.9 |
| 20260830202119 | 32 | 329 | 9.7 | 20.9 | 0.00 | 0.30 | 0.00 | 33 | 1021.0 |
| 20260830201616 | 32 | 276 | 11.3 | 20.9 | 0.00 | 0.30 | 0.00 | 33 | 1021.1 |
| 20260830201056 | 31 | 314 | 9.7 | 19.3 | 0.00 | 0.30 | 0.00 | 35 | 1021.2 |
| 20260830200554 | 31 | 13 | 6.4 | 17.7 | 0.00 | 0.30 | 0.00 | 35 | 1021.3 |
| 20260830200107 | 31 | 13 | 6.4 | 17.7 | 0.00 | 0.30 | 0.00 | 37 | 1021.3 |
| 20260830195556 | 31 | 26 | 8.0 | 16.1 | 0.00 | 0.30 | 0.00 | 36 | 1021.3 |
| 20260830195056 | 31 | 134 | 1.6 | 14.5 | 0.00 | 0.30 | 0.00 | 37 | 1021.5 |
| 20260830194610 | 31 | 350 | 8.0 | 16.1 | 0.00 | 0.30 | 0.00 | 37 | 1021.6 |
| 20260830194056 | 31 | 338 | 6.4 | 16.1 | 0.00 | 0.30 | 0.00 | 39 | 1021.6 |
| 20260830193555 | 31 | 351 | 6.4 | 14.5 | 0.00 | 0.30 | 0.00 | 39 | 1021.6 |
| 20260830193107 | 30 | 356 | 4.8 | 16.1 | 0.00 | 0.30 | 0.00 | 39 | 1021.8 |
| 20260830192554 | 31 | 335 | 8.0 | 16.1 | 0.00 | 0.30 | 0.00 | 39 | 1021.9 |
| 20260830192057 | 30 | 326 | 4.8 | 16.1 | 0.00 | 0.30 | 0.00 | 40 | 1021.9 |
| 20260830191604 | 30 | 359 | 8.0 | 16.1 | 0.00 | 0.30 | 0.00 | 41 | 1022.0 |
| 20260830191054 | 30 | 316 | 9.7 | 16.1 | 0.00 | 0.30 | 0.00 | 41 | 1022.0 |
| 20260830190554 | 30 | 340 | 8.0 | 14.5 | 0.00 | 0.30 | 0.00 | 41 | 1022.1 |
| 20260830185558 | 30 | 1 | 6.4 | 11.3 | 0.00 | 0.30 | 0.00 | 45 | 1022.2 |
| 20260830185056 | 29 | 349 | 4.8 | 9.7 | 0.00 | 0.30 | 0.00 | 45 | 1022.5 |
| 20260830184609 | 28 | 53 | 3.2 | 8.0 | 0.00 | 0.30 | 0.00 | 46 | 1022.5 |
| 20260830184054 | 28 | 0 | 3.2 | 9.7 | 0.00 | 0.30 | 0.00 | 46 | 1022.6 |
| 20260830183556 | 28 | 41 | 3.2 | 12.9 | 0.00 | 0.30 | 0.00 | 47 | 1022.7 |
| 20260830183105 | 28 | 6 | 4.8 | 12.9 | 0.00 | 0.30 | 0.00 | 47 | 1022.8 |
| 20260830182556 | 28 | 4 | 4.8 | 12.9 | 0.00 | 0.30 | 0.00 | 48 | 1022.9 |
| 20260830182053 | 28 | 10 | 3.2 | 9.7 | 0.00 | 0.30 | 0.00 | 46 | 1022.9 |
| 20260830181604 | 28 | 39 | 3.2 | 6.4 | 0.00 | 0.30 | 0.00 | 46 | 1023.0 |
| 20260830181052 | 28 | 34 | 3.2 | 8.0 | 0.00 | 0.30 | 0.00 | 46 | 1022.9 |
| 20260830180557 | 28 | 25 | 3.2 | 8.0 | 0.00 | 0.30 | 0.00 | 48 | 1023.1 |
| 20260830180114 | 28 | 52 | 1.6 | 8.0 | 0.00 | 0.30 | 0.00 | 47 | 1023.0 |
| 20260830175555 | 28 | 43 | 3.2 | 6.4 | 0.00 | 0.30 | 0.00 | 46 | 1023.1 |
| 20260830175056 | 27 | 0 | 1.6 | 8.0 | 0.00 | 0.30 | 0.00 | 48 | 1023.1 |
| 20260830174616 | 27 | 11 | 3.2 | 8.0 | 0.00 | 0.30 | 0.00 | 49 | 1023.3 |
| 20260830174054 | 27 | 360 | 3.2 | 9.7 | 0.00 | 0.30 | 0.00 | 50 | 1023.2 |
| 20260830173554 | 27 | 33 | 3.2 | 9.7 | 0.00 | 0.30 | 0.00 | 53 | 1023.4 |
| 20260830173105 | 27 | 44 | 3.2 | 8.0 | 0.00 | 0.30 | 0.00 | 52 | 1023.4 |
| 20260830172555 | 26 | 13 | 3.2 | 8.0 | 0.00 | 0.30 | 0.00 | 54 | 1023.5 |
| 20260830172054 | 26 | 35 | 1.6 | 6.4 | 0.00 | 0.30 | 0.00 | 57 | 1023.5 |
| 20260830171602 | 26 | 37 | 3.2 | 6.4 | 0.00 | 0.30 | 0.00 | 58 | 1023.5 |
| 20260830171055 | 26 | 39 | 3.2 | 6.4 | 0.00 | 0.30 | 0.00 | 59 | 1023.6 |
| 20260830170555 | 26 | 39 | 1.6 | 4.8 | 0.00 | 0.30 | 0.00 | 57 | 1023.6 |
| 20260830165556 | 26 | 41 | 0.0 | 4.8 | 0.00 | 0.30 | 0.00 | 58 | 1023.6 |
| 20260830165057 | 26 | 42 | 3.2 | 6.4 | 0.00 | 0.30 | 0.00 | 58 | 1023.6 |
| 20260830164622 | 25 | 0 | 1.6 | 6.4 | 0.00 | 0.30 | 0.00 | 59 | 1023.7 |
| 20260830164055 | 25 | 30 | 0.0 | 4.8 | 0.00 | 0.30 | 0.00 | 61 | 1023.6 |
| 20260830163556 | 25 | 0 | 0.0 | 4.8 | 0.00 | 0.30 | 0.00 | 63 | 1023.7 |
| 20260830163102 | 24 | 30 | 0.0 | 4.8 | 0.00 | 0.30 | 0.00 | 63 | 1023.7 |
| 20260830162555 | 24 | 0 | 0.0 | 4.8 | 0.00 | 0.30 | 0.00 | 63 | 1023.8 |
| 20260830162054 | 23 | 30 | 0.0 | 3.2 | 0.00 | 0.30 | 0.00 | 64 | 1023.9 |
| 20260830161607 | 23 | 0 | 1.6 | 4.8 | 0.00 | 0.30 | 0.00 | 64 | 1023.8 |
| 20260830161054 | 23 | 30 | 0.0 | 4.8 | 0.00 | 0.30 | 0.00 | 66 | 1023.7 |
| 20260830160556 | 23 | 30 | 0.0 | 3.2 | 0.00 | 0.30 | 0.00 | 66 | 1023.8 |
| 20260830160104 | 23 | 0 | 0.0 | 3.2 | 0.00 | 0.30 | 0.00 | 66 | 1023.8 |
| 20260830155554 | 23 | 0 | 0.0 | 3.2 | 0.00 | 0.30 | 0.00 | 67 | 1023.9 |
| 20260830155057 | 23 | 30 | 0.0 | 4.8 | 0.00 | 0.30 | 0.00 | 67 | 1023.8 |
| 20260830154603 | 23 | 0 | 0.0 | 4.8 | 0.00 | 0.30 | 0.00 | 68 | 1023.8 |
| 20260830154055 | 22 | 0 | 1.6 | 4.8 | 0.00 | 0.30 | 0.00 | 70 | 1023.7 |
| 20260830153555 | 22 | 30 | 1.6 | 4.8 | 0.00 | 0.30 | 0.00 | 70 | 1023.7 |
| 20260830153101 | 22 | 30 | 0.0 | 3.2 | 0.00 | 0.30 | 0.00 | 71 | 1023.6 |
| 20260830152556 | 22 | 0 | 0.0 | 3.2 | 0.00 | 0.30 | 0.00 | 72 | 1023.5 |
| 20260830152058 | 22 | 0 | 0.0 | 3.2 | 0.00 | 0.30 | 0.00 | 72 | 1023.5 |
| 20260830151605 | 22 | 30 | 0.0 | 6.4 | 0.00 | 0.30 | 0.00 | 74 | 1023.4 |
| 20260830151100 | 22 | 0 | 0.0 | 6.4 | 0.00 | 0.30 | 0.00 | 72 | 1023.5 |
| 20260830150558 | 22 | 30 | 3.2 | 6.4 | 0.00 | 0.30 | 0.00 | 72 | 1023.5 |
| 20260830150104 | 22 | 30 | 0.0 | 1.6 | 0.00 | 0.30 | 0.00 | 71 | 1023.3 |
| 20260830145559 | 22 | 0 | 0.0 | 0.0 | 0.00 | 0.30 | 0.00 | 72 | 1023.5 |
| 20260830145057 | 22 | 0 | 0.0 | 0.0 | 0.00 | 0.30 | 0.00 | 72 | 1023.4 |
| 20260830144602 | 22 | 0 | 0.0 | 1.6 | 0.00 | 0.30 | 0.00 | 73 | 1023.5 |
| 20260830144054 | 22 | 0 | 0.0 | 3.2 | 0.00 | 0.30 | 0.00 | 74 | 1023.5 |
| 20260830143600 | 22 | 0 | 0.0 | 3.2 | 0.00 | 0.30 | 0.00 | 74 | 1023.7 |
| 20260830143107 | 22 | 0 | 0.0 | 3.2 | 0.00 | 0.30 | 0.00 | 74 | 1023.5 |
| 20260830142554 | 22 | 30 | 0.0 | 4.8 | 0.00 | 0.30 | 0.00 | 75 | 1023.6 |
| 20260830142055 | 21 | 0 | 0.0 | 6.4 | 0.00 | 0.30 | 0.00 | 75 | 1023.6 |
| 20260830141603 | 22 | 30 | 1.6 | 6.4 | 0.00 | 0.30 | 0.00 | 75 | 1023.6 |
| 20260830141056 | 21 | 30 | 3.2 | 12.9 | 0.00 | 0.30 | 0.00 | 74 | 1023.7 |
| 20260830140555 | 21 | 30 | 4.8 | 12.9 | 0.00 | 0.30 | 0.00 | 75 | 1023.5 |
| 20260830140106 | 21 | 27 | 8.0 | 12.9 | 0.00 | 0.30 | 0.00 | 74 | 1023.4 |
| 20260830135555 | 21 | 11 | 6.4 | 12.9 | 0.00 | 0.30 | 0.00 | 75 | 1023.4 |
| 20260830135055 | 21 | 8 | 4.8 | 8.0 | 0.00 | 0.30 | 0.00 | 75 | 1023.4 |
| 20260830134607 | 21 | 1 | 3.2 | 6.4 | 0.00 | 0.30 | 0.00 | 75 | 1023.5 |
| 20260830134055 | 21 | 349 | 1.6 | 11.3 | 0.00 | 0.30 | 0.00 | 75 | 1023.2 |
| 20260830133554 | 21 | 345 | 3.2 | 11.3 | 0.00 | 0.30 | 0.00 | 75 | 1023.2 |
| 20260830133112 | 21 | 356 | 8.0 | 11.3 | 0.00 | 0.30 | 0.00 | 75 | 1023.2 |
| 20260830132557 | 21 | 334 | 3.2 | 9.7 | 0.00 | 0.30 | 0.00 | 77 | 1023.1 |
| 20260830132054 | 21 | 311 | 4.8 | 9.7 | 0.00 | 0.30 | 0.00 | 77 | 1022.9 |
| 20260830131605 | 21 | 329 | 4.8 | 8.0 | 0.00 | 0.30 | 0.00 | 77 | 1022.8 |
| 20260830131057 | 21 | 20 | 0.0 | 9.7 | 0.00 | 0.30 | 0.00 | 77 | 1022.9 |
| 20260830130554 | 21 | 20 | 3.2 | 9.7 | 0.00 | 0.30 | 0.00 | 77 | 1022.9 |
| 20260830130107 | 21 | 20 | 6.4 | 9.7 | 0.00 | 0.30 | 0.00 | 76 | 1022.7 |
| 20260830125554 | 21 | 15 | 4.8 | 11.3 | 0.00 | 0.30 | 0.00 | 76 | 1022.5 |
| 20260830125053 | 21 | 359 | 6.4 | 11.3 | 0.00 | 0.30 | 0.00 | 75 | 1022.3 |
| 20260830124623 | 21 | 36 | 3.2 | 8.0 | 0.00 | 0.30 | 0.00 | 73 | 1022.2 |
| 20260830124055 | 22 | 360 | 3.2 | 8.0 | 0.00 | 0.30 | 0.00 | 71 | 1022.1 |
| 20260830123555 | 22 | 5 | 1.6 | 4.8 | 0.00 | 0.30 | 0.00 | 69 | 1022.1 |
| 20260830123107 | 22 | 179 | 0.0 | 6.4 | 0.00 | 0.30 | 0.00 | 67 | 1022.1 |
| 20260830122556 | 22 | 0 | 0.0 | 9.7 | 0.00 | 0.30 | 0.00 | 66 | 1022.0 |
| 20260830122056 | 22 | 176 | 3.2 | 9.7 | 0.00 | 0.30 | 0.00 | 66 | 1022.0 |
| 20260830121605 | 22 | 173 | 4.8 | 9.7 | 0.00 | 0.30 | 0.00 | 66 | 1021.9 |
| 20260830121101 | 22 | 0 | 0.0 | 8.0 | 0.00 | 0.30 | 0.00 | 66 | 1022.0 |
| 20260830120555 | 22 | 174 | 4.8 | 11.3 | 0.00 | 0.30 | 0.00 | 65 | 1021.9 |
| 20260830120107 | 22 | 174 | 4.8 | 11.3 | 0.00 | 0.30 | 0.00 | 66 | 1022.0 |
| 20260830115555 | 22 | 170 | 6.4 | 11.3 | 0.00 | 0.30 | 0.00 | 66 | 1022.1 |
| 20260830115054 | 22 | 155 | 6.4 | 11.3 | 0.00 | 0.30 | 0.00 | 67 | 1022.1 |
| 20260830114615 | 22 | 179 | 3.2 | 11.3 | 0.00 | 0.30 | 0.00 | 67 | 1022.0 |
| 20260830114055 | 22 | 184 | 1.6 | 14.5 | 0.00 | 0.30 | 0.00 | 68 | 1022.0 |
| 20260830113556 | 22 | 162 | 4.8 | 14.5 | 0.00 | 0.30 | 0.00 | 68 | 1022.0 |
| 20260830113100 | 22 | 161 | 8.0 | 12.9 | 0.00 | 0.30 | 0.00 | 68 | 1022.1 |
| 20260830112555 | 22 | 188 | 3.2 | 11.3 | 0.00 | 0.30 | 0.00 | 68 | 1022.2 |
| 20260830112055 | 22 | 170 | 0.0 | 11.3 | 0.00 | 0.30 | 0.00 | 68 | 1022.3 |
| 20260830111607 | 22 | 169 | 3.2 | 11.3 | 0.00 | 0.30 | 0.00 | 68 | 1022.4 |
| 20260830111055 | 22 | 252 | 0.0 | 8.0 | 0.00 | 0.30 | 0.00 | 69 | 1022.4 |
| 20260830110555 | 22 | 252 | 3.2 | 8.0 | 0.00 | 0.30 | 0.00 | 69 | 1022.4 |
| 20260830110124 | 22 | 257 | 3.2 | 8.0 | 0.00 | 0.30 | 0.00 | 69 | 1022.7 |
| 20260830105554 | 22 | 174 | 3.2 | 8.0 | 0.00 | 0.30 | 0.00 | 69 | 1022.8 |
| 20260830105054 | 22 | 229 | 3.2 | 8.0 | 0.00 | 0.30 | 0.00 | 69 | 1022.9 |
| 20260830104607 | 22 | 221 | 3.2 | 6.4 | 0.00 | 0.30 | 0.00 | 70 | 1022.9 |
| 20260830104055 | 22 | 204 | 1.6 | 4.8 | 0.00 | 0.30 | 0.00 | 69 | 1022.8 |
| 20260830103600 | 22 | 204 | 1.6 | 4.8 | 0.00 | 0.30 | 0.00 | 69 | 1022.8 |
| 20260830103105 | 22 | 204 | 1.6 | 4.8 | 0.00 | 0.30 | 0.00 | 67 | 1022.8 |
| 20260830102555 | 23 | 204 | 0.0 | 4.8 | 0.00 | 0.30 | 0.00 | 66 | 1022.8 |
| 20260830102056 | 23 | 204 | 1.6 | 6.4 | 0.00 | 0.30 | 0.00 | 64 | 1022.8 |
| 20260830101613 | 23 | 205 | 1.6 | 8.0 | 0.00 | 0.30 | 0.00 | 63 | 1022.8 |
| 20260830101055 | 23 | 202 | 3.2 | 8.0 | 0.00 | 0.30 | 0.00 | 61 | 1022.8 |
| 20260830100558 | 23 | 233 | 3.2 | 8.0 | 0.00 | 0.30 | 0.00 | 60 | 1022.9 |
| 20260830100058 | 23 | 266 | 0.0 | 8.0 | 0.00 | 0.30 | 0.00 | 59 | 1022.8 |
| 20260830095555 | 23 | 285 | 1.6 | 8.0 | 0.00 | 0.30 | 0.00 | 59 | 1022.8 |
| 20260830095053 | 23 | 266 | 3.2 | 8.0 | 0.00 | 0.30 | 0.00 | 61 | 1022.7 |
| 20260830094603 | 23 | 203 | 3.2 | 8.0 | 0.00 | 0.30 | 0.00 | 62 | 1022.7 |
| 20260830094058 | 22 | 238 | 3.2 | 9.7 | 0.00 | 0.30 | 0.00 | 63 | 1022.7 |
| 20260830093554 | 22 | 242 | 3.2 | 11.3 | 0.00 | 0.30 | 0.00 | 62 | 1022.6 |
| 20260830093102 | 22 | 288 | 3.2 | 11.3 | 0.00 | 0.30 | 0.00 | 64 | 1021.9 |
| 20260830092555 | 22 | 259 | 3.2 | 8.0 | 0.00 | 0.30 | 0.00 | 65 | 1021.5 |
| 20260830092055 | 22 | 278 | 3.2 | 12.9 | 0.00 | 0.30 | 0.00 | 63 | 1021.4 |
| 20260830091606 | 22 | 276 | 6.4 | 16.1 | 0.00 | 0.30 | 0.00 | 63 | 1021.0 |
| 20260830091057 | 22 | 352 | 8.0 | 16.1 | 0.00 | 0.30 | 0.00 | 64 | 1020.8 |
| 20260830090555 | 22 | 352 | 6.4 | 16.1 | 0.00 | 0.30 | 0.00 | 65 | 1021.0 |
| 20260830090111 | 22 | 314 | 6.4 | 12.9 | 0.00 | 0.30 | 0.00 | 67 | 1021.1 |
| 20260830085557 | 22 | 336 | 6.4 | 12.9 | 0.00 | 0.30 | 0.00 | 67 | 1021.2 |
| 20260830085053 | 22 | 326 | 4.8 | 11.3 | 0.00 | 0.30 | 0.00 | 68 | 1021.5 |
| 20260830084603 | 22 | 296 | 6.4 | 11.3 | 0.00 | 0.30 | 0.00 | 67 | 1021.7 |
| 20260830084054 | 22 | 293 | 4.8 | 6.4 | 0.00 | 0.30 | 0.00 | 67 | 1021.9 |
| 20260830083555 | 22 | 293 | 0.0 | 8.0 | 0.00 | 0.30 | 0.00 | 67 | 1022.2 |
| 20260830083144 | 22 | 0 | 3.2 | 9.7 | 0.00 | 0.30 | 0.00 | 67 | 1022.2 |
| 20260830082555 | 22 | 293 | 3.2 | 9.7 | 0.00 | 0.30 | 0.00 | 67 | 1022.4 |
| 20260830082054 | 22 | 293 | 3.2 | 9.7 | 0.00 | 0.30 | 0.00 | 66 | 1022.4 |
| 20260830081605 | 22 | 293 | 4.8 | 9.7 | 0.00 | 0.30 | 0.00 | 66 | 1022.4 |
| 20260830081052 | 22 | 291 | 3.2 | 8.0 | 0.00 | 0.30 | 0.00 | 68 | 1022.5 |
| 20260830080555 | 22 | 38 | 0.0 | 4.8 | 0.00 | 0.30 | 0.00 | 68 | 1022.7 |
| 20260830080104 | 22 | 39 | 0.0 | 4.8 | 0.00 | 0.30 | 0.00 | 68 | 1022.8 |
| 20260830075555 | 22 | 39 | 1.6 | 4.8 | 0.00 | 0.30 | 0.00 | 68 | 1022.8 |
| 20260830075053 | 22 | 39 | 0.0 | 3.2 | 0.00 | 0.30 | 0.00 | 67 | 1022.6 |
| 20260830074602 | 22 | 39 | 0.0 | 3.2 | 0.00 | 0.30 | 0.00 | 65 | 1022.7 |
| 20260830074054 | 22 | 39 | 0.0 | 4.8 | 0.00 | 0.30 | 0.00 | 64 | 1022.7 |
| 20260830073558 | 22 | 0 | 0.0 | 6.4 | 0.00 | 0.30 | 0.00 | 65 | 1022.7 |
| 20260830073109 | 22 | 39 | 3.2 | 6.4 | 0.00 | 0.30 | 0.00 | 65 | 1022.7 |
| 20260830072555 | 22 | 39 | 4.8 | 8.0 | 0.00 | 0.30 | 0.00 | 65 | 1022.7 |
| 20260830072055 | 22 | 42 | 3.2 | 8.0 | 0.00 | 0.30 | 0.00 | 65 | 1022.8 |
| 20260830071604 | 22 | 49 | 1.6 | 6.4 | 0.00 | 0.30 | 0.00 | 65 | 1022.8 |
| 20260830071056 | 23 | 49 | 4.8 | 11.3 | 0.00 | 0.30 | 0.00 | 64 | 1022.7 |
| 20260830070555 | 23 | 49 | 3.2 | 20.9 | 0.00 | 0.30 | 0.00 | 63 | 1022.7 |
| 20260830070109 | 23 | 50 | 9.7 | 20.9 | 0.00 | 0.30 | 0.00 | 62 | 1022.6 |
| 20260830065556 | 23 | 24 | 8.0 | 16.1 | 0.00 | 0.30 | 0.30 | 63 | 1022.7 |
| 20260830065056 | 23 | 39 | 6.4 | 11.3 | 0.00 | 0.30 | 0.30 | 64 | 1022.5 |
| 20260830064609 | 23 | 54 | 4.8 | 11.3 | 0.00 | 0.30 | 0.30 | 62 | 1022.4 |
| 20260830064052 | 23 | 295 | 0.0 | 6.4 | 0.00 | 0.30 | 0.30 | 59 | 1022.1 |
| 20260830063556 | 23 | 295 | 3.2 | 6.4 | 0.00 | 0.30 | 0.30 | 58 | 1021.8 |
| 20260830063108 | 23 | 293 | 1.6 | 11.3 | 0.00 | 0.30 | 0.30 | 59 | 1021.6 |
| 20260830062554 | 23 | 0 | 1.6 | 11.3 | 0.00 | 0.30 | 0.30 | 59 | 1021.4 |
| 20260830062058 | 23 | 0 | 3.2 | 11.3 | 0.00 | 0.30 | 0.30 | 59 | 1021.3 |
| 20260830061602 | 23 | 310 | 4.8 | 11.3 | 0.00 | 0.30 | 0.30 | 58 | 1021.3 |
| 20260830061055 | 23 | 291 | 6.4 | 12.9 | 0.00 | 0.30 | 0.30 | 58 | 1021.0 |
| 20260830060555 | 24 | 290 | 4.8 | 24.1 | 0.00 | 0.30 | 0.30 | 58 | 1020.9 |
| 20260830055555 | 23 | 288 | 11.3 | 22.5 | 0.00 | 0.30 | 0.30 | 60 | 1020.8 |
| 20260830055055 | 23 | 323 | 6.4 | 14.5 | 0.00 | 0.30 | 0.30 | 63 | 1020.8 |
| 20260830054609 | 22 | 301 | 1.6 | 6.4 | 0.00 | 0.30 | 0.30 | 64 | 1020.8 |
| 20260830054055 | 22 | 323 | 3.2 | 11.3 | 0.00 | 0.30 | 0.30 | 65 | 1020.8 |
| 20260830053554 | 22 | 311 | 3.2 | 11.3 | 0.03 | 0.30 | 0.30 | 66 | 1020.9 |
| 20260830053104 | 21 | 343 | 3.2 | 9.7 | 0.05 | 0.30 | 0.30 | 66 | 1020.9 |
| 20260830052552 | 21 | 328 | 1.6 | 11.3 | 0.08 | 0.30 | 0.30 | 68 | 1020.8 |
| 20260830052057 | 21 | 309 | 4.8 | 11.3 | 0.10 | 0.30 | 0.30 | 68 | 1020.6 |
| 20260830051603 | 21 | 288 | 3.2 | 11.3 | 0.10 | 0.30 | 0.30 | 70 | 1020.6 |
| 20260830051053 | 22 | 266 | 3.2 | 11.3 | 0.10 | 0.30 | 0.30 | 71 | 1020.6 |
| 20260830050554 | 22 | 248 | 6.4 | 17.7 | 0.10 | 0.30 | 0.30 | 71 | 1020.7 |
| 20260830050105 | 22 | 265 | 4.8 | 19.3 | 0.10 | 0.30 | 0.30 | 69 | 1020.8 |
| 20260830045555 | 22 | 297 | 11.3 | 19.3 | 0.10 | 0.30 | 0.30 | 68 | 1020.7 |
| 20260830045054 | 22 | 249 | 4.8 | 12.9 | 0.10 | 0.30 | 0.30 | 70 | 1020.7 |
| 20260830044603 | 22 | 261 | 4.8 | 11.3 | 0.10 | 0.30 | 0.30 | 68 | 1020.7 |
| 20260830044055 | 22 | 270 | 3.2 | 20.9 | 0.10 | 0.30 | 0.30 | 65 | 1020.9 |
| 20260830043552 | 23 | 216 | 6.4 | 20.9 | 0.08 | 0.28 | 0.28 | 61 | 1020.9 |
| 20260830043104 | 23 | 245 | 6.4 | 20.9 | 0.05 | 0.25 | 0.25 | 56 | 1021.2 |
| 20260830042558 | 23 | 226 | 8.0 | 16.1 | 0.03 | 0.23 | 0.23 | 58 | 1021.3 |
| 20260830042057 | 24 | 208 | 9.7 | 16.1 | 0.00 | 0.20 | 0.20 | 55 | 1021.4 |
| 20260830041605 | 26 | 205 | 4.8 | 11.3 | 0.00 | 0.20 | 0.20 | 53 | 1021.4 |
| 20260830041059 | 27 | 203 | 3.2 | 11.3 | 0.00 | 0.20 | 0.20 | 47 | 1021.7 |
| 20260830040554 | 27 | 251 | 0.0 | 9.7 | 0.00 | 0.20 | 0.20 | 45 | 1021.6 |
| 20260830040106 | 27 | 251 | 3.2 | 9.7 | 0.00 | 0.20 | 0.20 | 44 | 1021.4 |
| 20260830035555 | 27 | 273 | 1.6 | 6.4 | 0.00 | 0.20 | 0.20 | 45 | 1021.5 |
| 20260830035059 | 27 | 0 | 0.0 | 6.4 | 0.00 | 0.20 | 0.20 | 46 | 1021.3 |
| 20260830034605 | 27 | 0 | 0.0 | 6.4 | 0.00 | 0.20 | 0.20 | 47 | 1021.3 |
| 20260830034055 | 27 | 217 | 1.6 | 6.4 | 0.00 | 0.20 | 0.20 | 47 | 1021.3 |
| 20260830033552 | 27 | 208 | 1.6 | 4.8 | 0.00 | 0.20 | 0.20 | 46 | 1021.1 |
| 20260830033104 | 27 | 195 | 1.6 | 4.8 | 0.00 | 0.20 | 0.20 | 46 | 1021.0 |
| 20260830032553 | 27 | 179 | 1.6 | 3.2 | 0.00 | 0.20 | 0.20 | 46 | 1021.0 |
| 20260830032055 | 27 | 0 | 0.0 | 3.2 | 0.00 | 0.20 | 0.20 | 45 | 1020.9 |
| 20260830031620 | 27 | 0 | 0.0 | 12.9 | 0.00 | 0.20 | 0.20 | 46 | 1020.8 |
| 20260830031056 | 27 | 178 | 3.2 | 17.7 | 0.00 | 0.20 | 0.20 | 44 | 1020.6 |
| 20260830030558 | 27 | 169 | 9.7 | 17.7 | 0.00 | 0.20 | 0.20 | 46 | 1020.4 |
| 20260830030109 | 27 | 163 | 11.3 | 17.7 | 0.00 | 0.20 | 0.20 | 47 | 1020.4 |
| 20260830025554 | 26 | 169 | 9.7 | 17.7 | 0.00 | 0.20 | 0.20 | 50 | 1020.2 |
| 20260830025054 | 26 | 127 | 8.0 | 17.7 | 0.00 | 0.20 | 0.20 | 52 | 1020.2 |
| 20260830024604 | 27 | 113 | 6.4 | 16.1 | 0.00 | 0.20 | 0.20 | 50 | 1019.9 |
| 20260830024053 | 28 | 304 | 0.0 | 6.4 | 0.00 | 0.20 | 0.20 | 46 | 1019.5 |
| 20260830023552 | 28 | 0 | 0.0 | 6.4 | 0.00 | 0.20 | 0.20 | 42 | 1019.3 |
| 20260830023111 | 28 | 0 | 0.0 | 6.4 | 0.00 | 0.20 | 0.20 | 43 | 1019.2 |
| 20260830022555 | 28 | 276 | 0.0 | 4.8 | 0.00 | 0.20 | 0.20 | 43 | 1019.1 |
| 20260830022054 | 28 | 254 | 0.0 | 3.2 | 0.00 | 0.20 | 0.20 | 42 | 1019.0 |
| 20260830021600 | 28 | 0 | 0.0 | 4.8 | 0.00 | 0.20 | 0.20 | 42 | 1018.8 |
| 20260830021054 | 28 | 0 | 0.0 | 9.7 | 0.00 | 0.20 | 0.20 | 42 | 1018.8 |
| 20260830020557 | 28 | 254 | 1.6 | 9.7 | 0.00 | 0.20 | 0.20 | 42 | 1018.8 |
| 20260830020103 | 28 | 0 | 1.6 | 6.4 | 0.00 | 0.20 | 0.20 | 41 | 1018.8 |
| 20260830015555 | 28 | 139 | 1.6 | 12.9 | 0.00 | 0.20 | 0.20 | 41 | 1018.8 |
| 20260830015058 | 29 | 0 | 0.0 | 12.9 | 0.00 | 0.20 | 0.20 | 40 | 1018.7 |
| 20260830014602 | 29 | 281 | 3.2 | 17.7 | 0.00 | 0.20 | 0.20 | 40 | 1018.8 |
| 20260830014053 | 29 | 267 | 4.8 | 17.7 | 0.00 | 0.20 | 0.20 | 39 | 1018.7 |
| 20260830013555 | 30 | 272 | 3.2 | 17.7 | 0.00 | 0.20 | 0.20 | 39 | 1018.6 |
| 20260830013114 | 30 | 308 | 6.4 | 17.7 | 0.00 | 0.20 | 0.20 | 39 | 1018.8 |
| 20260830012553 | 30 | 274 | 6.4 | 22.5 | 0.00 | 0.20 | 0.20 | 38 | 1018.8 |
| 20260830012054 | 30 | 293 | 8.0 | 22.5 | 0.00 | 0.20 | 0.20 | 38 | 1018.7 |
| 20260830011601 | 30 | 275 | 8.0 | 22.5 | 0.00 | 0.20 | 0.20 | 38 | 1018.7 |
| 20260830011055 | 30 | 291 | 12.9 | 27.4 | 0.00 | 0.20 | 0.20 | 37 | 1018.7 |
| 20260830010603 | 31 | 297 | 14.5 | 27.4 | 0.00 | 0.20 | 0.20 | 36 | 1018.7 |
| 20260830010109 | 31 | 285 | 11.3 | 19.3 | 0.00 | 0.20 | 0.20 | 35 | 1018.6 |
| 20260830005557 | 31 | 300 | 11.3 | 19.3 | 0.00 | 0.20 | 0.20 | 35 | 1018.4 |
| 20260830005056 | 31 | 283 | 11.3 | 19.3 | 0.00 | 0.20 | 0.20 | 34 | 1018.5 |
| 20260830004636 | 31 | 283 | 8.0 | 20.9 | 0.00 | 0.20 | 0.20 | 35 | 1018.4 |
| 20260830004055 | 31 | 272 | 9.7 | 20.9 | 0.00 | 0.20 | 0.20 | 34 | 1018.4 |
| 20260830003555 | 31 | 271 | 9.7 | 20.9 | 0.03 | 0.20 | 0.20 | 35 | 1018.4 |
| 20260830003109 | 31 | 303 | 8.0 | 17.7 | 0.03 | 0.20 | 0.20 | 34 | 1018.3 |
| 20260830002556 | 31 | 274 | 6.4 | 17.7 | 0.03 | 0.20 | 0.20 | 34 | 1018.3 |
| 20260830002055 | 31 | 295 | 6.4 | 19.3 | 0.03 | 0.20 | 0.20 | 35 | 1018.3 |